Regional Weather Roundup
Issued by NWS

Home | Current Version | Previous Version | Text Only | Print | Product List | Glossary Off
Versions: 1 2 3 4 5 6 7 8 9 10 11 12 13 14 15 16 17 18 19 20 21 22 23 24 25 26 27 28 29 30 31 32 33 34 35 36 37 38 39 40 41 42 43 44 45 46 47 48 49 50

000
ASUS43 KMPX 270101
RWRMN
WEATHER ROUNDUP FOR MINNESOTA
NATIONAL WEATHER SERVICE TWIN CITIES/CHANHASSEN MN
800 PM CDT THU MAR 26 2015


NOTE: "FAIR" INDICATES FEW OR NO CLOUDS BELOW 12,000 FEET WITH NO
SIGNIFICANT WEATHER AND/OR OBSTRUCTIONS TO VISIBILITY. N/A MEANS
CURRENT SKY AND/OR WEATHER CONDITIONS ARE NOT AVAILABLE.

MNZ060>063-068>070-270200-
   Twin Cities Metro

CITY           SKY/WX    TMP DP  RH WIND       PRES   REMARKS
TWIN CITIES    PTCLDY    31   6  35 N13       30.15R WCI  21
ST PAUL        CLEAR     31   9  39 NW13      30.15R WCI  21
CRYSTAL        CLEAR     31   6  35 N9        30.14R WCI  23
BLAINE         PTCLDY    30   9  40 NW9       30.14R WCI  22
LAKEVILLE      MOCLDY    30  14  51 N12       30.13R WCI  21
EDEN PRAIRIE   PTCLDY    31  10  41 N10       30.13R WCI  22
SOUTH ST PAUL  CLEAR     32   9  39 N8        30.14R WCI  25
LAKE ELMO      FAIR      32  10  40 N8        30.14R WCI  25
$$
MNZ001>005-007-008-013>017-022>024-027-028-270200-
   Northwest Minnesota

CITY           SKY/WX    TMP DP  RH WIND       PRES   REMARKS
BEMIDJI        CLEAR     23  -2  34 N6        30.21R WCI  16
HALLOCK        CLEAR     25  10  54 N8        30.31R WCI  16
ROSEAU         CLEAR     25   7  46 N9        30.27R WCI  15
WARROAD        CLEAR     23  12  63 CALM      30.26S
THIEF RVR FALL CLEAR     25   9  50 N12       30.27R WCI  14
CROOKSTON      CLEAR     27  10  50 N9        30.30R WCI  17
FOSSTON        CLEAR     21   7  53 N13       30.25R WCI   9
DETROIT LAKES  CLEAR     27  14  59 N8        30.23R WCI  18
MOORHEAD       CLEAR     28   7  40 N10       30.28R WCI  19
PARK RAPIDS    CLEAR     27  -2  28 N10       30.18R WCI  17
MAHNOMEN       FAIR      26  11  55 N12       30.24R WCI  15
$$
MNZ006-009>011-018-025>026-270200-
   North Central Minnesota

CITY           SKY/WX    TMP DP  RH WIND       PRES   REMARKS
BAUDETTE       CLEAR     22   3  44 N10       30.23R WCI  11
FLAG ISLAND    CLEAR     21   7  53 NW10      30.25S WCI  10
INTL FALLS     CLEAR     22   1  40 N10       30.22R WCI  11
WASKISH        CLEAR     23   3  42 N7        30.24R WCI  15
BIG FORK       CLEAR     25   0  33 N6        30.20R WCI  18
LONGVILLE      CLEAR     25   1  36 NW5       30.19R WCI  19
GRAND RAPIDS   CLEAR     25   1  36 N14       30.16R WCI  13
CRANE LAKE     CLEAR     19  -6  32 N6        30.22R WCI  11
ORR            CLEAR     19  -6  32 CALM      30.17R
COOK           CLEAR     21  -2  35 N3        30.19R
WALKER         FAIR      24  -3  30 N9        30.19R WCI  14
$$
MNZ012-019>021-037-270200-
   Northeast Minnesota

CITY           SKY/WX    TMP DP  RH WIND       PRES   REMARKS
DULUTH         PTCLDY    24   2  38 N7        30.13R WCI  16
ELY            CLEAR     19  -2  38 N7        30.16R WCI  10
HIBBING        CLEAR     23  -2  33 N13       30.16R WCI  11
EVELETH        CLEAR     23  -4  30 N8        30.17R WCI  14
DULUTH HARBOR  CLEAR     28   7  40 N17       30.18R WCI  16
TWO HARBORS    CLEAR     27   3  36 N5        30.14R WCI  21
SILVER BAY     CLEAR     25  -2  30 N3        30.14R
GRAND MARAIS     N/A     23   2  40 N5        30.18R WCI  17
G MARAIS ARPRT CLEAR     16  -2  45 NW9G17    30.10R WCI   4
$$
MNZ029>031-032-039>041-046>048-054>057-064-270200-
   West Central Minnesota

CITY           SKY/WX    TMP DP  RH WIND       PRES   REMARKS
FERGUS FALLS   CLEAR     27   7  43 N9        30.26R WCI  17
WHEATON        CLEAR     27  10  50 N13       30.26R WCI  16
MORRIS         CLEAR     28  16  59 N13       30.21R WCI  18
ALEXANDRIA     CLEAR     27  11  51 NW14      30.19R WCI  16
ELBOW LAKE     FAIR      26  11  53 N14       30.21S WCI  15
WADENA         CLEAR     25  10  54 N8        30.19R WCI  16
GLENWOOD       CLEAR     27  16  63 NW10      30.19R WCI  17
APPLETON       CLEAR     30  16  55 N12       30.21S WCI  21
BENSON         CLEAR     27  10  50 N10       30.21R WCI  17
ORTONVILLE     CLEAR     28  12  50 N16       30.22R WCI  17
MADISON        CLEAR     30  16  55 N13       30.21R WCI  20
WILLMAR        FAIR      27  18  69 NW8       30.19R WCI  18
$$
MNZ033>034-036-042>043-049>051-058-059-270200-
   Central Minnesota

CITY           SKY/WX    TMP DP  RH WIND       PRES   REMARKS
ST CLOUD       CLEAR     29   8  41 N12       30.15R WCI  19
SAUK CENTRE    FAIR      28  10  48 N7        30.18R WCI  21
PAYNESVILLE    CLEAR     26  13  56 W7        30.17R WCI  19
AITKIN         CLEAR     28   5  37 N9        30.15R WCI  20
PINE RIVER     CLEAR     25   3  39 N7        30.22R WCI  17
BRAINERD       CLEAR     27   5  39 N14       30.18R WCI  16
STAPLES        CLEAR     27  -4  26 N9        30.19R WCI  17
LONG PRAIRIE   FAIR      28   5  37 NW10      30.17R WCI  19
LITTLE FALLS   CLEAR     28   1  31 N3        30.17R
LITCHFIELD     CLEAR     28  18  64 NW5       30.16R WCI  23
MAPLE LAKE     CLEAR     31  13  48 N7        30.16R WCI  24
$$
MNZ037-044-045-052-053-270200-
   East Central Minnesota

CITY           SKY/WX    TMP DP  RH WIND       PRES   REMARKS
PRINCETON      CLEAR     30   9  40 CALM      30.16R
MORA           CLEAR     30   5  34 N3        30.17R
CAMBRIDGE      PTCLDY    32  14  47 N6        30.14R WCI  26
RUSH CITY      CLEAR     29   7  40 N8        30.15R WCI  21
MOOSE LAKE     CLEAR     28   3  34 CALM      30.13R
HINCKLEY       FAIR      30   5  34 N7        30.15R WCI  23
CLOQUET        CLEAR     25  -4  28 N9        30.14R WCI  15
MCGREGOR       CLEAR     28   5  37 N9        30.16R WCI  20
$$
MNZ071>073-080-081-089-090-097-098-270200-
   Southwest Minnesota

CITY           SKY/WX    TMP DP  RH WIND       PRES   REMARKS
MONTEVIDEO     CLEAR     28  16  59 NE14      30.21R WCI  17
GRANITE FALLS  CLEAR     29  18  62 NW8       30.21S WCI  21
CANBY          CLEAR     30  15  53 N13       30.22R WCI  20
MARSHALL       PTCLDY    28  18  64 N6        30.20R WCI  22
REDWOOD FALLS  PTCLDY    29  17  61 N8        30.19R WCI  21
OLIVIA         CLEAR     28  21  74 NW7       30.18R WCI  21
PIPESTONE      CLEAR     28  18  64 NE13G18   30.17R WCI  18
WINDOM         CLOUDY    28  19  69 NW15G21   30.17R WCI  17
WORTHINGTON    MOCLDY    28  16  59 N18       30.18R WCI  16
JACKSON        CLOUDY    32  19  59 NW17      30.16R WCI  21
TRACY          PTCLDY    28  19  69 N7        30.19R WCI  21
SLAYTON        MOCLDY    28  15  59 N13       30.18R WCI  17
$$
MNZ065>067-074>077-082>085-091>093-270200-
   South Central Minnesota

CITY           SKY/WX    TMP DP  RH WIND       PRES   REMARKS
MANKATO        MOCLDY    30  18  59 NW10      30.15R WCI  21
NEW ULM        CLOUDY    28  18  64 NW15      30.17R WCI  17
ST JAMES       CLOUDY    30  19  64 NW15      30.18R WCI  19
FAIRMONT       CLOUDY    30  18  59 NW16      30.15R WCI  19
GLENCOE        PTCLDY    29  20  69 W9        30.15R WCI  20
FARIBAULT      PTCLDY    28  18  64 NW7       30.14R WCI  21
OWATONNA       MOCLDY    30  19  64 NW10      30.13R WCI  21
WASECA         CLOUDY    32  25  74 NW15      30.14R WCI  22
ALBERT LEA     CLOUDY    30  21  69 NW7       30.12R WCI  23
$$
MNZ078>079-086>088-094>096-270200-
   Southeast Minnesota

CITY           SKY/WX    TMP DP  RH WIND       PRES   REMARKS
ROCHESTER      CLOUDY    29  19  66 NW14      30.09R WCI  18
RED WING       MOCLDY    32  12  43 N5        30.12R WCI  27
STANTON        MOCLDY    31  19  61 NW6       30.12R WCI  25
DODGE CENTER   CLOUDY    30  21  69 NW10      30.10R WCI  21
WINONA         CLOUDY    34  21  60 N6        30.12R WCI  29
AUSTIN         CLOUDY    30  21  69 NW9       30.11R WCI  22
PRESTON        CLOUDY    29  21  71 NW9       30.09R WCI  21
$$
ABBREVIATIONS USED IN REMARKS
   TC - TEMPERATURES IN CELSIUS
  WCI - WIND CHILL INDEX
   HX - HEAT INDEX
  VSB - VISIBILITY
$$


USA.gov is the U.S. government's official web portal to all federal, state and local government web resources and services.